Regional Weather Roundup
Issued by NWS

Home | Current Version | Previous Version | Graphics & Text | Print | Product List | Glossary On
Versions: 1 2 3 4 5 6 7 8 9 10 11 12 13 14 15 16 17 18 19 20 21 22 23 24 25 26 27 28 29 30 31 32 33 34 35 36 37 38 39 40 41 42 43 44 45 46 47 48 49 50
000
ASUS43 KFSD 202210
RWRSD

WEATHER ROUNDUP FOR SOUTH DAKOTA
NATIONAL WEATHER SERVICE SIOUX FALLS SD
400 PM CST MON FEB 20 2017

NOTE: "FAIR" INDICATES FEW OR NO CLOUDS BELOW 12,000 FEET WITH NO
SIGNIFICANT WEATHER AND/OR OBSTRUCTIONS TO VISIBILITY.


SDZ001>005-009-010-012>017-202300-
NORTHWEST AND NORTH CENTRAL SOUTH DAKOTA

CITY           SKY/WX    TMP DP  RH WIND       PRES   REMARKS
BUFFALO          N/A     59  19  21 W20       29.71F
FAITH            N/A     58  25  28 W14       29.80R
MOBRIDGE       SUNNY     55  40  56 N6        29.73R
$$

SDZ012>016-024>037-041>051-057-063-072>074-202300-
SOUTHWEST AND SOUTH CENTRAL SOUTH DAKOTA

CITY           SKY/WX    TMP DP  RH WIND       PRES   REMARKS
RAPID CTY ARPT SUNNY     64  15  15 NW12      29.81S
PIERRE         SUNNY     60  32  34 NW17      29.78R
CUSTER         SUNNY     51  12  21 SW12G21   29.86F
ELLSWORTH AFB  SUNNY     63  15  15 SW8       29.80S
PHILIP           N/A     63  25  23 NW14G28   29.82
PINE RIDGE     SUNNY     60  21  22 W14G20    29.87S
SPEARFISH      FAIR      59  18  20 W17G23    29.79F
WINNER         FAIR      63  25  23 NW22G33   29.80R
$$

SDZ004>011-016>023-039-040-202300-
NORTHEAST SOUTH DAKOTA

CITY           SKY/WX    TMP DP  RH WIND       PRES   REMARKS
ABERDEEN       SUNNY     51  39  63 NW14G20   29.73R
WATERTOWN      MOSUNNY   47  41  80 NW17      29.69R
BROOKINGS      MOSUNNY   50  43  77 NW18G26   29.69R
SISSETON         N/A     45  42  89 NW21G26   29.66R
$$

SDZ017-020-022-023-036>040-048>070-202300-
SOUTHEAST SOUTH DAKOTA

CITY           SKY/WX    TMP DP  RH WIND       PRES   REMARKS
SIOUX FALLS    MOSUNNY   53  44  71 NW24G31   29.74R
HURON          SUNNY     57  44  62 NW13      29.74R
CHAMBERLAIN    SUNNY     61  38  42 NW15      29.79S
MITCHELL       SUNNY     57  42  57 NW17      29.78R
YANKTON        SUNNY    N/A N/A N/A W21G28    29.76R
$$

ABBREVIATIONS USED IN REMARKS
   TC - TEMPERATURE IN CELSIUS
  WCI - WIND CHILL INDEX
   HX - HEAT INDEX
  VSB - VISIBILITY





USA.gov is the U.S. government's official web portal to all federal, state and local government web resources and services.